| time (UTC) | temp F | wind direction | speed MPH | gust MPH | rain 1hr in | rain 24hr in | rain mn in | humidity % | barometer mb |
| 20260504050537 | 52 | 34 | 5.0 | 12.0 | 0.00 | 0.12 | 0.00 | 58 | 1019.3 |
| 20260504045532 | 51 | 51 | 6.0 | 13.0 | 0.00 | 0.12 | 0.00 | 58 | 1019.4 |
| 20260504045031 | 51 | 28 | 7.0 | 13.0 | 0.00 | 0.12 | 0.00 | 58 | 1019.3 |
| 20260504044528 | 51 | 64 | 8.0 | 14.0 | 0.00 | 0.12 | 0.00 | 59 | 1019.3 |
| 20260504044038 | 51 | 20 | 7.0 | 13.0 | 0.00 | 0.12 | 0.00 | 59 | 1019.3 |
| 20260504043532 | 51 | 25 | 6.0 | 12.0 | 0.00 | 0.12 | 0.00 | 58 | 1019.3 |
| 20260504043032 | 50 | 30 | 7.0 | 15.0 | 0.00 | 0.12 | 0.00 | 59 | 1019.2 |
| 20260504042538 | 50 | 17 | 8.0 | 15.0 | 0.00 | 0.12 | 0.00 | 59 | 1019.2 |
| 20260504042105 | 50 | 18 | 8.0 | 14.0 | 0.00 | 0.12 | 0.00 | 59 | 1019.3 |
| 20260504041540 | 50 | 46 | 7.0 | 17.0 | 0.00 | 0.12 | 0.00 | 59 | 1019.3 |
| 20260504041036 | 50 | 13 | 9.0 | 13.0 | 0.00 | 0.12 | 0.00 | 58 | 1019.3 |
| 20260504040529 | 50 | 32 | 7.0 | 13.0 | 0.00 | 0.12 | 0.00 | 58 | 1019.3 |
| 20260504040035 | 49 | 19 | 6.0 | 12.0 | 0.00 | 0.12 | 0.00 | 59 | 1019.3 |
| 20260504035538 | 50 | 24 | 6.0 | 11.0 | 0.00 | 0.12 | 0.00 | 59 | 1019.3 |
| 20260504035033 | 50 | 24 | 4.0 | 9.0 | 0.00 | 0.12 | 0.00 | 59 | 1019.3 |
| 20260504034546 | 50 | 13 | 5.0 | 9.0 | 0.00 | 0.12 | 0.00 | 59 | 1019.4 |
| 20260504034107 | 50 | 47 | 4.0 | 9.0 | 0.00 | 0.12 | 0.00 | 59 | 1019.2 |
| 20260504033529 | 49 | 46 | 4.0 | 10.0 | 0.00 | 0.12 | 0.00 | 60 | 1019.2 |
| 20260504033038 | 49 | 9 | 5.0 | 10.0 | 0.00 | 0.12 | 0.00 | 60 | 1019.2 |
| 20260504032532 | 49 | 40 | 5.0 | 9.0 | 0.00 | 0.12 | 0.00 | 60 | 1019.1 |
| 20260504032039 | 49 | 5 | 4.0 | 11.0 | 0.00 | 0.12 | 0.00 | 60 | 1019.0 |
| 20260504031529 | 49 | 5 | 5.0 | 11.0 | 0.00 | 0.12 | 0.00 | 60 | 1018.9 |
| 20260504031030 | 49 | 82 | 4.0 | 9.0 | 0.00 | 0.12 | 0.00 | 61 | 1018.9 |
| 20260504030544 | 49 | 39 | 3.0 | 6.0 | 0.00 | 0.12 | 0.00 | 61 | 1019.0 |
| 20260504030034 | 49 | 11 | 2.0 | 6.0 | 0.00 | 0.12 | 0.00 | 61 | 1019.0 |
| 20260504025539 | 49 | 28 | 3.0 | 6.0 | 0.00 | 0.12 | 0.00 | 61 | 1019.0 |
| 20260504025045 | 49 | 5 | 3.0 | 6.0 | 0.00 | 0.12 | 0.00 | 60 | 1019.0 |
| 20260504024554 | 49 | 28 | 2.0 | 8.0 | 0.00 | 0.12 | 0.00 | 60 | 1018.9 |
| 20260504024027 | 49 | 17 | 5.0 | 8.0 | 0.00 | 0.12 | 0.00 | 60 | 1018.9 |
| 20260504023538 | 49 | 19 | 3.0 | 6.0 | 0.00 | 0.12 | 0.00 | 59 | 1019.0 |
| 20260504023028 | 49 | 5 | 1.0 | 5.0 | 0.00 | 0.12 | 0.00 | 59 | 1018.9 |
| 20260504022600 | 49 | 5 | 2.0 | 6.0 | 0.00 | 0.12 | 0.00 | 58 | 1018.9 |
| 20260504022036 | 49 | 38 | 3.0 | 8.0 | 0.00 | 0.12 | 0.00 | 58 | 1018.7 |
| 20260504021550 | 49 | 15 | 3.0 | 8.0 | 0.00 | 0.12 | 0.00 | 56 | 1018.8 |
| 20260504021044 | 50 | 23 | 4.0 | 9.0 | 0.00 | 0.12 | 0.00 | 56 | 1018.7 |
| 20260504020543 | 50 | 30 | 3.0 | 9.0 | 0.00 | 0.12 | 0.00 | 55 | 1018.7 |
| 20260504020045 | 50 | 18 | 3.0 | 8.0 | 0.00 | 0.12 | 0.00 | 54 | 1018.7 |
| 20260504015534 | 50 | 360 | 4.0 | 8.0 | 0.00 | 0.12 | 0.00 | 54 | 1018.7 |
| 20260504015047 | 50 | 22 | 5.0 | 8.0 | 0.00 | 0.12 | 0.00 | 53 | 1018.7 |
| 20260504014539 | 50 | 14 | 4.0 | 8.0 | 0.00 | 0.12 | 0.00 | 53 | 1018.6 |
| 20260504014045 | 50 | 31 | 3.0 | 8.0 | 0.00 | 0.12 | 0.00 | 53 | 1018.5 |
| 20260504013541 | 50 | 28 | 4.0 | 8.0 | 0.00 | 0.12 | 0.00 | 54 | 1018.5 |
| 20260504013038 | 50 | 24 | 4.0 | 9.0 | 0.00 | 0.12 | 0.00 | 54 | 1018.5 |
| 20260504012614 | 50 | 26 | 4.0 | 11.0 | 0.00 | 0.12 | 0.00 | 54 | 1018.6 |
| 20260504012129 | 50 | 41 | 6.0 | 10.0 | 0.00 | 0.12 | 0.00 | 53 | 1018.5 |
| 20260504011546 | 50 | 11 | 5.0 | 10.0 | 0.00 | 0.12 | 0.00 | 53 | 1018.6 |
| 20260504011059 | 50 | 351 | 3.0 | 7.0 | 0.00 | 0.12 | 0.00 | 53 | 1018.5 |
| 20260504010534 | 50 | 324 | 3.0 | 9.0 | 0.00 | 0.12 | 0.00 | 53 | 1018.4 |
| 20260504010036 | 50 | 12 | 3.0 | 9.0 | 0.00 | 0.12 | 0.00 | 52 | 1018.4 |
| 20260504005546 | 50 | 13 | 4.0 | 9.0 | 0.00 | 0.12 | 0.00 | 52 | 1018.4 |
| 20260504005056 | 50 | 347 | 3.0 | 12.0 | 0.00 | 0.12 | 0.00 | 52 | 1018.3 |
| 20260504004551 | 50 | 32 | 4.0 | 12.0 | 0.00 | 0.12 | 0.00 | 53 | 1018.3 |
| 20260504004045 | 50 | 30 | 4.0 | 12.0 | 0.00 | 0.12 | 0.00 | 52 | 1018.2 |
| 20260504003534 | 50 | 55 | 6.0 | 12.0 | 0.00 | 0.12 | 0.00 | 53 | 1018.1 |
| 20260504003028 | 50 | 360 | 5.0 | 15.0 | 0.00 | 0.12 | 0.00 | 53 | 1018.1 |
| 20260504002600 | 50 | 44 | 7.0 | 15.0 | 0.00 | 0.12 | 0.00 | 53 | 1018.1 |
| 20260504002128 | 50 | 17 | 6.0 | 12.0 | 0.00 | 0.12 | 0.00 | 53 | 1018.1 |
| 20260504001535 | 50 | 17 | 8.0 | 12.0 | 0.00 | 0.12 | 0.00 | 53 | 1018.1 |
| 20260504001042 | 50 | 9 | 6.0 | 11.0 | 0.00 | 0.12 | 0.00 | 53 | 1018.2 |
| 20260504000532 | 50 | 46 | 6.0 | 10.0 | 0.00 | 0.12 | 0.00 | 54 | 1018.3 |
| 20260504000032 | 50 | 5 | 6.0 | 10.0 | 0.00 | 0.12 | 0.00 | 54 | 1018.4 |
| 20260503235549 | 50 | 52 | 6.0 | 10.0 | 0.00 | 0.12 | 0.00 | 54 | 1018.4 |
| 20260503235030 | 50 | 5 | 6.0 | 8.0 | 0.00 | 0.12 | 0.00 | 54 | 1018.4 |
| 20260503234545 | 50 | 355 | 4.0 | 8.0 | 0.00 | 0.12 | 0.00 | 54 | 1018.4 |
| 20260503234027 | 50 | 20 | 5.0 | 8.0 | 0.00 | 0.12 | 0.00 | 54 | 1018.4 |
| 20260503233600 | 50 | 29 | 4.0 | 8.0 | 0.00 | 0.12 | 0.00 | 54 | 1018.5 |
| 20260503233039 | 50 | 360 | 3.0 | 8.0 | 0.00 | 0.12 | 0.00 | 54 | 1018.6 |
| 20260503232530 | 50 | 33 | 4.0 | 8.0 | 0.00 | 0.12 | 0.00 | 53 | 1018.7 |
| 20260503232034 | 51 | 23 | 4.0 | 8.0 | 0.00 | 0.12 | 0.00 | 53 | 1018.8 |
| 20260503231538 | 51 | 26 | 4.0 | 6.0 | 0.00 | 0.12 | 0.00 | 53 | 1018.9 |
| 20260503231031 | 51 | 28 | 4.0 | 9.0 | 0.00 | 0.12 | 0.00 | 53 | 1018.8 |
| 20260503230544 | 51 | 15 | 4.0 | 9.0 | 0.00 | 0.12 | 0.00 | 53 | 1018.9 |
| 20260503230044 | 51 | 11 | 5.0 | 8.0 | 0.00 | 0.12 | 0.00 | 53 | 1018.8 |
| 20260503225558 | 51 | 37 | 5.0 | 8.0 | 0.00 | 0.12 | 0.00 | 53 | 1018.9 |
| 20260503225028 | 51 | 33 | 3.0 | 10.0 | 0.00 | 0.12 | 0.00 | 53 | 1018.8 |
| 20260503224533 | 51 | 34 | 3.0 | 10.0 | 0.00 | 0.12 | 0.00 | 52 | 1018.8 |
| 20260503224040 | 51 | 20 | 4.0 | 8.0 | 0.00 | 0.12 | 0.00 | 52 | 1018.8 |
| 20260503223554 | 51 | 32 | 3.0 | 8.0 | 0.00 | 0.12 | 0.00 | 52 | 1018.7 |
| 20260503223134 | 51 | 27 | 3.0 | 6.0 | 0.00 | 0.12 | 0.00 | 51 | 1018.7 |
| 20260503222549 | 52 | 355 | 3.0 | 7.0 | 0.00 | 0.12 | 0.00 | 50 | 1018.8 |
| 20260503222033 | 52 | 54 | 4.0 | 7.0 | 0.00 | 0.12 | 0.00 | 49 | 1018.7 |
| 20260503221544 | 52 | 61 | 4.0 | 7.0 | 0.00 | 0.12 | 0.00 | 50 | 1018.8 |
| 20260503221033 | 52 | 67 | 4.0 | 7.0 | 0.00 | 0.12 | 0.00 | 50 | 1018.7 |
| 20260503220538 | 52 | 49 | 4.0 | 7.0 | 0.00 | 0.12 | 0.00 | 50 | 1018.7 |
| 20260503220042 | 52 | 38 | 3.0 | 8.0 | 0.00 | 0.12 | 0.00 | 50 | 1018.7 |
| 20260503215534 | 52 | 34 | 5.0 | 8.0 | 0.00 | 0.12 | 0.00 | 50 | 1018.7 |
| 20260503215040 | 52 | 12 | 5.0 | 8.0 | 0.00 | 0.12 | 0.00 | 50 | 1018.8 |
| 20260503214603 | 52 | 333 | 4.0 | 7.0 | 0.00 | 0.12 | 0.00 | 51 | 1018.6 |
| 20260503214030 | 51 | 30 | 4.0 | 7.0 | 0.00 | 0.12 | 0.00 | 52 | 1018.7 |
| 20260503213548 | 51 | 12 | 3.0 | 5.0 | 0.00 | 0.12 | 0.00 | 52 | 1018.7 |
| 20260503213037 | 52 | 69 | 2.0 | 8.0 | 0.00 | 0.12 | 0.00 | 52 | 1018.6 |
| 20260503212554 | 51 | 57 | 4.0 | 8.0 | 0.00 | 0.12 | 0.00 | 52 | 1018.6 |
| 20260503212041 | 52 | 35 | 3.0 | 7.0 | 0.00 | 0.12 | 0.00 | 51 | 1018.6 |
| 20260503211537 | 52 | 74 | 4.0 | 7.0 | 0.00 | 0.12 | 0.00 | 51 | 1018.8 |
| 20260503211029 | 52 | 38 | 1.0 | 8.0 | 0.00 | 0.12 | 0.00 | 51 | 1018.8 |
| 20260503210533 | 52 | 38 | 3.0 | 8.0 | 0.00 | 0.12 | 0.00 | 51 | 1018.8 |
| 20260503210044 | 52 | 85 | 4.0 | 7.0 | 0.00 | 0.12 | 0.02 | 51 | 1018.8 |
| 20260503205545 | 52 | 42 | 2.0 | 6.0 | 0.00 | 0.12 | 0.02 | 51 | 1018.8 |
| 20260503205041 | 52 | 50 | 3.0 | 6.0 | 0.00 | 0.12 | 0.02 | 51 | 1018.8 |
| 20260503204557 | 53 | 98 | 2.0 | 9.0 | 0.00 | 0.12 | 0.02 | 50 | 1018.8 |
| 20260503204032 | 53 | 15 | 5.0 | 8.0 | 0.00 | 0.12 | 0.02 | 50 | 1018.6 |
| 20260503203543 | 52 | 22 | 3.0 | 8.0 | 0.00 | 0.12 | 0.02 | 52 | 1018.6 |
| 20260503203055 | 53 | 337 | 5.0 | 8.0 | 0.00 | 0.12 | 0.02 | 51 | 1018.5 |
| 20260503202547 | 53 | 331 | 4.0 | 8.0 | 0.00 | 0.12 | 0.02 | 49 | 1018.6 |
| 20260503202047 | 54 | 346 | 5.0 | 8.0 | 0.00 | 0.12 | 0.02 | 49 | 1018.5 |
| 20260503201535 | 54 | 339 | 5.0 | 8.0 | 0.00 | 0.12 | 0.02 | 49 | 1018.6 |
| 20260503201106 | 54 | 336 | 5.0 | 8.0 | 0.00 | 0.12 | 0.02 | 50 | 1018.6 |
| 20260503200532 | 54 | 31 | 3.0 | 8.0 | 0.00 | 0.12 | 0.02 | 51 | 1018.6 |
| 20260503200054 | 54 | 340 | 4.0 | 6.0 | 0.00 | 0.12 | 0.02 | 51 | 1018.6 |
| 20260503195552 | 55 | 355 | 3.0 | 7.0 | 0.00 | 0.12 | 0.02 | 49 | 1018.6 |
| 20260503195052 | 55 | 302 | 4.0 | 7.0 | 0.00 | 0.12 | 0.02 | 49 | 1018.4 |
| 20260503194544 | 55 | 275 | 4.0 | 9.0 | 0.00 | 0.12 | 0.02 | 49 | 1018.3 |
| 20260503194110 | 55 | 315 | 5.0 | 9.0 | 0.00 | 0.12 | 0.02 | 48 | 1018.4 |
| 20260503193536 | 55 | 355 | 3.0 | 7.0 | 0.00 | 0.12 | 0.02 | 48 | 1018.2 |
| 20260503193041 | 55 | 336 | 3.0 | 5.0 | 0.00 | 0.12 | 0.02 | 49 | 1018.2 |
| 20260503192530 | 55 | 301 | 2.0 | 4.0 | 0.00 | 0.12 | 0.02 | 48 | 1018.1 |
| 20260503192055 | 55 | 105 | 2.0 | 4.0 | 0.00 | 0.12 | 0.02 | 49 | 1018.0 |
| 20260503191545 | 55 | 51 | 1.0 | 3.0 | 0.00 | 0.12 | 0.02 | 50 | 1017.8 |
| 20260503191047 | 55 | 355 | 1.0 | 4.0 | 0.00 | 0.12 | 0.02 | 51 | 1017.7 |
| 20260503190546 | 55 | 36 | 3.0 | 4.0 | 0.00 | 0.12 | 0.02 | 51 | 1017.7 |
| 20260503190047 | 55 | 26 | 1.0 | 4.0 | 0.00 | 0.12 | 0.02 | 52 | 1017.8 |
| 20260503185533 | 55 | 22 | 2.0 | 5.0 | 0.00 | 0.12 | 0.02 | 52 | 1017.9 |
| 20260503185046 | 55 | 32 | 2.0 | 5.0 | 0.00 | 0.12 | 0.02 | 53 | 1017.8 |
| 20260503184532 | 55 | 19 | 2.0 | 5.0 | 0.00 | 0.12 | 0.02 | 53 | 1017.8 |
| 20260503184046 | 55 | 351 | 3.0 | 6.0 | 0.00 | 0.12 | 0.02 | 54 | 1017.7 |
| 20260503183538 | 55 | 343 | 3.0 | 7.0 | 0.00 | 0.12 | 0.02 | 53 | 1017.7 |
| 20260503183103 | 55 | 338 | 2.0 | 7.0 | 0.00 | 0.12 | 0.02 | 53 | 1017.6 |
| 20260503182531 | 55 | 46 | 4.0 | 7.0 | 0.00 | 0.12 | 0.02 | 53 | 1017.5 |
| 20260503182053 | 55 | 73 | 4.0 | 9.0 | 0.00 | 0.12 | 0.02 | 54 | 1017.5 |
| 20260503181547 | 55 | 29 | 5.0 | 9.0 | 0.00 | 0.12 | 0.02 | 56 | 1017.5 |
| 20260503181037 | 55 | 14 | 5.0 | 8.0 | 0.00 | 0.12 | 0.02 | 55 | 1017.5 |
| 20260503180556 | 55 | 61 | 4.0 | 6.0 | 0.00 | 0.12 | 0.02 | 55 | 1017.4 |
| 20260503180045 | 55 | 330 | 1.0 | 6.0 | 0.00 | 0.12 | 0.02 | 55 | 1017.3 |
| 20260503175531 | 55 | 336 | 3.0 | 7.0 | 0.00 | 0.12 | 0.02 | 56 | 1017.2 |
| 20260503175032 | 55 | 360 | 4.0 | 6.0 | 0.00 | 0.12 | 0.02 | 56 | 1017.1 |
| 20260503174544 | 55 | 330 | 3.0 | 8.0 | 0.00 | 0.12 | 0.02 | 56 | 1016.8 |
| 20260503174034 | 55 | 23 | 5.0 | 8.0 | 0.00 | 0.12 | 0.02 | 56 | 1016.7 |
| 20260503173550 | 56 | 10 | 5.0 | 9.0 | 0.00 | 0.12 | 0.02 | 55 | 1016.7 |
| 20260503173033 | 56 | 60 | 5.0 | 9.0 | 0.00 | 0.12 | 0.02 | 55 | 1016.5 |
| 20260503172548 | 56 | 360 | 3.0 | 7.0 | 0.00 | 0.12 | 0.02 | 55 | 1016.5 |
| 20260503172033 | 57 | 342 | 3.0 | 7.0 | 0.00 | 0.12 | 0.02 | 54 | 1016.3 |
| 20260503171549 | 57 | 32 | 3.0 | 8.0 | 0.00 | 0.12 | 0.02 | 53 | 1016.2 |
| 20260503171044 | 58 | 15 | 5.0 | 8.0 | 0.00 | 0.12 | 0.02 | 52 | 1016.0 |
| 20260503170532 | 58 | 11 | 3.0 | 9.0 | 0.00 | 0.12 | 0.02 | 53 | 1015.9 |
| 20260503150534 | 60 | 37 | 10.0 | 20.0 | 0.00 | 0.12 | 0.02 | 48 | 1015.0 |
| 20260503131028 | 55 | 44 | 10.0 | 20.0 | 0.12 | 0.12 | 0.02 | 69 | 1014.5 |
| 20260503130536 | 56 | 17 | 12.0 | 20.0 | 0.12 | 0.12 | 0.02 | 69 | 1014.3 |
| 20260503110539 | 65 | 121 | 5.0 | 12.0 | 0.00 | 0.00 | 0.00 | 54 | 1013.1 |
| 20260503081530 | 62 | 271 | 2.0 | 6.0 | 0.00 | 0.00 | 0.00 | 50 | 1014.0 |
| 20260503081034 | 62 | 205 | 3.0 | 6.0 | 0.00 | 0.00 | 0.00 | 49 | 1014.2 |
| 20260503080539 | 61 | 212 | 2.0 | 7.0 | 0.00 | 0.00 | 0.00 | 51 | 1014.2 |
| 20260503072606 | 59 | 200 | 3.0 | 4.0 | 0.00 | 0.00 | 0.00 | 51 | 1014.8 |
| 20260503072044 | 59 | 113 | 1.0 | 5.0 | 0.00 | 0.00 | 0.00 | 50 | 1014.9 |
| 20260503071537 | 58 | 150 | 2.0 | 5.0 | 0.00 | 0.00 | 0.00 | 51 | 1014.9 |
| 20260503071029 | 57 | 132 | 3.0 | 5.0 | 0.00 | 0.00 | 0.00 | 50 | 1015.0 |
| 20260503070545 | 58 | 110 | 3.0 | 6.0 | 0.00 | 0.00 | 0.00 | 51 | 1015.1 |